Regional Weather Roundup
Issued by NWS Cleveland, OH

Home | Current Version | Previous Version | Text Only | Print | Product List | Glossary Off
Versions: 1 2 3 4 5 6 7 8 9 10 11 12 13 14 15 16 17 18 19 20 21 22 23 24 25 26 27 28 29 30 31 32 33 34 35 36 37 38 39 40 41 42 43 44 45 46 47 48 49 50

000
ASUS41 KCLE 020510
RWRCLE
OHIO REGIONAL WEATHER ROUNDUP
NATIONAL WEATHER SERVICE WILMINGTON, OH
100 AM EDT THU OCT 02 2014

NOTE: "FAIR" INDICATES FEW OR NO CLOUDS BELOW 12,000 FEET WITH NO
SIGNIFICANT WEATHER AND/OR OBSTRUCTIONS TO VISIBILITY.

OHZ001>008-015>018-024>027-034-035-043-044-020600-
   NORTHWEST OHIO

CITY           SKY/WX    TMP DP  RH WIND       PRES   REMARKS
DEFIANCE       CLEAR     54  51  90 E6        30.02F
FINDLAY        CLEAR     54  50  86 SE3       30.03S
TOLEDO EXPRESS FOG       50  48  93 CALM      30.03F VSB 3/4
TOLEDO METCALF FOG       54  52  93 E6        30.04S VSB 3/4
LIMA           CLEAR     51  47  86 E5        30.03F
$$

OHZ009>014-019>023-028>033-038-089-020600-
   NORTHEAST OHIO

CITY           SKY/WX    TMP DP  RH WIND       PRES   REMARKS
CLE-HOPKINS    CLEAR     54  53  97 S6        30.06S FOG
CLE-LAKEFRONT  CLEAR     59  56  89 SE7       30.04S
CUY CO. ARPT   NOT AVBL
LORAIN-ELYRIA  FOG       54  51  90 SW5       30.06R VSB 1/4
ASHTABULA      FOG       52  52 100 CALM      30.06S VSB 1/4
AKRON-CANTON   CLEAR     54  50  86 E3        30.05F FOG
WOOSTER        FOG       47  44  90 CALM      30.06S VSB 1/4
MANSFIELD      FOG       48  48 100 SW5       30.06R VSB 1/4
YOUNGSTOWN     MOCLDY    51  50  96 CALM      30.06S FOG
$$

OHZ042-051>053-060>062-070>072-077>081-020600-
  SOUTHWEST OHIO

CITY           SKY/WX    TMP DP  RH WIND       PRES   REMARKS
CINC-COVINGTON CLEAR     63  50  62 E3        30.01S
CINC-LUNKEN    CLEAR     54  53  97 CALM      30.02S
HAMILTON       CLEAR     51  49  92 CALM      30.02S
DAYTON         CLEAR     55  48  77 SE7       30.04R
WRIGHT-PAT AFB CLEAR     51  48  91 CALM      30.03S
DAYTON GENERAL CLEAR     58  47  66 E8        30.02S
WILMINGTON     CLEAR     55  44  66 E6        30.03S
$$

OHZ036-037-039>041-045>050-054>059-063>069-073>076-082>088-020600-
  CENTRAL AND SOUTHEAST OHIO

CITY           SKY/WX    TMP DP  RH WIND       PRES   REMARKS
COLUMBUS       CLEAR     54  49  83 CALM      30.04S
OSU AIRPORT    CLEAR     52  50  93 CALM      30.04S FOG
BOLTON FIELD   CLEAR     50  50  99 CALM      30.04F FOG
RICKENBACK AFB CLEAR     51  49  92 CALM      30.04R
NEWARK         FOG       44  43  96 CALM      30.06R VSB 1/4
MARION         CLEAR     52  50  93 SE3       30.05S FOG
LANCASTER      CLEAR     47  45  93 CALM      30.05S
ZANESVILLE     FOG       48  45  89 CALM      30.05S VSB 1/4
NEW PHILLY     FOG       52  52 100 CALM      30.06F VSB 1/4
$$


USA.gov is the U.S. government's official web portal to all federal, state and local government web resources and services.